• In Belarus
  • List of Countries
  • For 7 days
  • Water Temperature
  • Weather Map
  • Weather Widgets
  • user-avatar
    Login

    Hourly Weather Ondjiwa

    Today, 30 May, Saturday

    Time Temperature Precipitation Wind Pressure Humidity
    00:00 +16°C° 0 mm 2 mps 668 mmHg 29%
    01:00 +15°C° 0 mm 2 mps 668 mmHg 31%
    02:00 +14°C° 0 mm 2 mps 667 mmHg 31%
    03:00 +14°C° 0 mm 2 mps 667 mmHg 31%
    04:00 +13°C° 0 mm 2 mps 667 mmHg 31%
    05:00 +13°C° 0 mm 2 mps 668 mmHg 31%
    06:00 +13°C° 0 mm 2 mps 668 mmHg 32%
    07:00 +13°C° 0 mm 2 mps 669 mmHg 32%
    08:00 +17°C° 0 mm 3 mps 670 mmHg 26%
    09:00 +21°C° 0 mm 3 mps 671 mmHg 21%
    10:00 +26°C° 0 mm 4 mps 672 mmHg 15%
    11:00 +28°C° 0 mm 4 mps 671 mmHg 13%
    12:00 +30°C° 0 mm 3 mps 671 mmHg 11%
    13:00 +31°C° 0 mm 3 mps 670 mmHg 9%
    14:00 +31°C° 0 mm 3 mps 670 mmHg 9%
    15:00 +31°C° 0 mm 3 mps 670 mmHg 10%
    16:00 +31°C° 0 mm 3 mps 669 mmHg 10%
    17:00 +28°C° 0 mm 2 mps 669 mmHg 13%
    18:00 +24°C° 0 mm 2 mps 669 mmHg 16%
    19:00 +20°C° 0 mm 2 mps 668 mmHg 20%
    20:00 +19°C° 0 mm 2 mps 668 mmHg 21%
    21:00 +18°C° 0 mm 2 mps 668 mmHg 23%
    22:00 +18°C° 0 mm 2 mps 669 mmHg 24%
    23:00 +17°C° 0 mm 3 mps 669 mmHg 26%

    Tomorrow, 31 May, Sunday

    Time Temperature Precipitation Wind Pressure Humidity
    00:00 +17°C° 0 mm 3 mps 669 mmHg 27%
    01:00 +16°C° 0 mm 3 mps 669 mmHg 28%
    02:00 +14°C° 0 mm 3 mps 669 mmHg 30%
    03:00 +14°C° 0 mm 3 mps 669 mmHg 32%
    04:00 +13°C° 0 mm 3 mps 668 mmHg 34%
    05:00 +13°C° 0 mm 3 mps 669 mmHg 35%
    06:00 +13°C° 0 mm 3 mps 669 mmHg 36%
    07:00 +12°C° 0 mm 3 mps 670 mmHg 38%
    08:00 +17°C° 0 mm 3 mps 671 mmHg 32%
    09:00 +21°C° 0 mm 3 mps 671 mmHg 26%
    10:00 +26°C° 0 mm 4 mps 672 mmHg 20%
    11:00 +28°C° 0 mm 4 mps 672 mmHg 18%
    12:00 +30°C° 0 mm 4 mps 672 mmHg 16%
    13:00 +33°C° 0 mm 4 mps 671 mmHg 14%
    14:00 +33°C° 0 mm 4 mps 671 mmHg 15%
    15:00 +32°C° 0 mm 4 mps 670 mmHg 15%
    16:00 +31°C° 0 mm 3 mps 670 mmHg 16%
    17:00 +28°C° 0 mm 3 mps 670 mmHg 20%
    18:00 +25°C° 0 mm 2 mps 669 mmHg 24%
    19:00 +21°C° 0 mm 2 mps 669 mmHg 28%
    20:00 +20°C° 0 mm 2 mps 669 mmHg 29%
    21:00 +19°C° 0 mm 2 mps 670 mmHg 30%
    22:00 +18°C° 0 mm 2 mps 670 mmHg 32%
    23:00 +18°C° 0 mm 2 mps 670 mmHg 34%

    Day after tomorrow, 1 June, Monday

    Time Temperature Precipitation Wind Pressure Humidity
    00:00 +17°C° 0 mm 2 mps 670 mmHg 36%
    01:00 +17°C° 0 mm 3 mps 670 mmHg 38%
    02:00 +16°C° 0 mm 3 mps 669 mmHg 41%
    03:00 +14°C° 0 mm 3 mps 669 mmHg 44%
    04:00 +14°C° 0 mm 3 mps 669 mmHg 47%
    05:00 +15°C° 0 mm 2 mps 669 mmHg 48%
    06:00 +15°C° 0 mm 2 mps 670 mmHg 50%
    07:00 +14°C° 0 mm 2 mps 670 mmHg 51%
    08:00 +18°C° 0 mm 3 mps 671 mmHg 43%
    09:00 +22°C° 0 mm 4 mps 672 mmHg 34%
    10:00 +27°C° 0 mm 5 mps 672 mmHg 25%
    11:00 +29°C° 0 mm 4 mps 672 mmHg 23%
    12:00 +30°C° 0 mm 4 mps 672 mmHg 21%
    13:00 +33°C° 0 mm 4 mps 671 mmHg 19%
    14:00 +32°C° 0 mm 4 mps 671 mmHg 19%
    15:00 +31°C° 0 mm 3 mps 670 mmHg 20%
    16:00 +31°C° 0 mm 3 mps 669 mmHg 21%
    17:00 +28°C° 0 mm 3 mps 669 mmHg 26%
    18:00 +25°C° 0 mm 2 mps 669 mmHg 31%
    19:00 +21°C° 0 mm 2 mps 669 mmHg 37%
    20:00 +21°C° 0 mm 2 mps 669 mmHg 38%
    21:00 +20°C° 0 mm 2 mps 669 mmHg 40%
    22:00 +19°C° 0 mm 2 mps 669 mmHg 42%
    23:00 +19°C° 0 mm 3 mps 669 mmHg 43%

    2 June, Tuesday

    Time Temperature Precipitation Wind Pressure Humidity
    00:00 +18°C° 0 mm 3 mps 669 mmHg 45%
    01:00 +18°C° 0 mm 3 mps 669 mmHg 46%
    02:00 +17°C° 0 mm 3 mps 669 mmHg 48%
    03:00 +17°C° 0 mm 3 mps 669 mmHg 49%
    04:00 +17°C° 0 mm 3 mps 669 mmHg 51%
    05:00 +16°C° 0 mm 3 mps 670 mmHg 51%
    06:00 +16°C° 0 mm 3 mps 670 mmHg 51%
    07:00 +16°C° 0 mm 3 mps 670 mmHg 51%
    08:00 +20°C° 0 mm 4 mps 671 mmHg 42%
    09:00 +25°C° 0 mm 4 mps 672 mmHg 34%
    10:00 +28°C° 0 mm 5 mps 673 mmHg 25%
    11:00 +29°C° 0 mm 4 mps 672 mmHg 23%
    12:00 +30°C° 0 mm 4 mps 671 mmHg 21%
    13:00 +31°C° 0 mm 3 mps 671 mmHg 18%
    14:00 +31°C° 0 mm 3 mps 670 mmHg 18%
    15:00 +31°C° 0 mm 3 mps 670 mmHg 18%
    16:00 +31°C° 0 mm 2 mps 669 mmHg 18%
    17:00 +28°C° 0 mm 2 mps 669 mmHg 22%
    18:00 +25°C° 0 mm 2 mps 669 mmHg 26%
    19:00 +23°C° 0 mm 2 mps 669 mmHg 30%
    20:00 +21°C° 0 mm 2 mps 669 mmHg 31%
    21:00 +20°C° 0 mm 2 mps 668 mmHg 33%
    22:00 +19°C° 0 mm 2 mps 668 mmHg 35%
    23:00 +18°C° 0 mm 2 mps 668 mmHg 36%

    3 June, Wednesday

    Time Temperature Precipitation Wind Pressure Humidity
    00:00 +18°C° 0 mm 2 mps 668 mmHg 37%
    01:00 +17°C° 0 mm 2 mps 668 mmHg 38%
    02:00 +16°C° 0 mm 2 mps 668 mmHg 40%
    03:00 +15°C° 0 mm 2 mps 668 mmHg 42%
    04:00 +15°C° 0 mm 1 mps 667 mmHg 44%
    05:00 +15°C° 0 mm 1 mps 668 mmHg 44%
    06:00 +14°C° 0 mm 2 mps 668 mmHg 45%
    07:00 +14°C° 0 mm 2 mps 669 mmHg 45%
    08:00 +18°C° 0 mm 3 mps 669 mmHg 38%
    09:00 +22°C° 0 mm 3 mps 670 mmHg 31%
    10:00 +27°C° 0 mm 4 mps 671 mmHg 25%
    11:00 +28°C° 0 mm 3 mps 671 mmHg 22%
    12:00 +29°C° 0 mm 3 mps 670 mmHg 20%
    13:00 +31°C° 0 mm 2 mps 670 mmHg 17%
    14:00 +31°C° 0 mm 2 mps 669 mmHg 17%
    15:00 +30°C° 0 mm 1 mps 669 mmHg 17%
    16:00 +30°C° 0 mm 1 mps 669 mmHg 17%
    17:00 +28°C° 0 mm 1 mps 668 mmHg 20%
    18:00 +25°C° 0 mm 1 mps 668 mmHg 23%
    19:00 +21°C° 0 mm 2 mps 668 mmHg 26%
    20:00 +21°C° 0 mm 2 mps 668 mmHg 28%
    21:00 +20°C° 0 mm 2 mps 668 mmHg 29%
    22:00 +19°C° 0 mm 2 mps 668 mmHg 31%
    23:00 +18°C° 0 mm 2 mps 668 mmHg 32%

    4 June, Thursday

    Time Temperature Precipitation Wind Pressure Humidity
    00:00 +18°C° 0 mm 2 mps 668 mmHg 33%
    01:00 +17°C° 0 mm 2 mps 668 mmHg 35%
    02:00 +16°C° 0 mm 2 mps 668 mmHg 36%
    03:00 +16°C° 0 mm 2 mps 668 mmHg 38%
    04:00 +15°C° 0 mm 2 mps 667 mmHg 39%
    05:00 +15°C° 0 mm 2 mps 668 mmHg 40%
    06:00 +15°C° 0 mm 2 mps 668 mmHg 41%
    07:00 +14°C° 0 mm 2 mps 669 mmHg 42%
    08:00 +18°C° 0 mm 3 mps 670 mmHg 35%
    09:00 +22°C° 0 mm 3 mps 670 mmHg 28%
    10:00 +27°C° 0 mm 4 mps 671 mmHg 21%
    11:00 +28°C° 0 mm 3 mps 671 mmHg 20%
    12:00 +30°C° 0 mm 3 mps 671 mmHg 18%
    13:00 +31°C° 0 mm 2 mps 670 mmHg 16%
    14:00 +31°C° 0 mm 2 mps 670 mmHg 16%
    15:00 +31°C° 0 mm 1 mps 669 mmHg 16%
    16:00 +29°C° 0 mm 0 mps 669 mmHg 16%
    17:00 +28°C° 0 mm 1 mps 669 mmHg 19%
    18:00 +25°C° 0 mm 1 mps 668 mmHg 23%
    19:00 +22°C° 0 mm 1 mps 668 mmHg 26%
    20:00 +20°C° 0 mm 2 mps 668 mmHg 27%
    21:00 +19°C° 0 mm 2 mps 669 mmHg 29%
    22:00 +19°C° 0 mm 3 mps 669 mmHg 30%
    23:00 +18°C° 0 mm 2 mps 669 mmHg 31%
    Show more